Tracking 30990 objects as of 8-Jul-2025
HD Live streaming from Space Station
objects crossing your sky now

STARLINK-30421

Track STARLINK-30421 now!
10-day predictions
STARLINK-30421 is classified as:


NORAD ID: 58107
Int'l Code: 2023-161L
Perigee: 481.7 km
Apogee: 483.1 km
Inclination: 53.2 °
Period: 94.1 minutes
Semi major axis: 6853 km
RCS: Unknown
Launch date: October 21, 2023
Source: United States (US)
Launch site: AIR FORCE WESTERN TEST RANGE (AFWTR)
Your satellite tracking list
Your tracking list is empty




NASA's NSSDC Master Catalog

Two Line Element Set (TLE):
1 58107U 23161L   25189.35886917 -.00000725  00000-0 -12365-4 0  9993
2 58107  53.1584 207.4431 0000990  94.1289 265.9825 15.30190210 97196
Source of the keplerian elements: AFSPC